Time,TemperatureF,DewpointF,PressureIn,WindDirection,WindDirectionDegrees,WindSpeedMPH,WindSpeedGustMPH,Humidity,HourlyPrecipIn,Conditions,Clouds,dailyrainin,SoftwareType,DateUTC
2013-11-04 00:00:00,29.8,18.0,30.45,NNE,30,0.0,1.0,61,0.00,,,0.00,Wunderground v.1.15,2013-11-04 05:00:00,
2013-11-04 00:05:00,29.7,17.9,30.46,NE,51,0.0,1.0,61,0.00,,,0.00,Wunderground v.1.15,2013-11-04 05:05:00,
2013-11-04 00:10:00,29.6,17.8,30.46,NE,51,0.0,1.0,61,0.00,,,0.00,Wunderground v.1.15,2013-11-04 05:10:00,
2013-11-04 00:20:00,29.7,17.9,30.46,NE,49,0.0,1.0,61,0.00,,,0.00,Wunderground v.1.15,2013-11-04 05:20:00,
2013-11-04 00:25:00,29.7,17.5,30.47,North,5,0.0,1.0,60,0.00,,,0.00,Wunderground v.1.15,2013-11-04 05:25:00,
2013-11-04 00:35:00,29.5,17.7,30.48,NE,43,0.0,1.0,61,0.00,,,0.00,Wunderground v.1.15,2013-11-04 05:35:00,
2013-11-04 00:40:00,29.4,18.0,30.48,NE,53,0.0,1.0,62,0.00,,,0.00,Wunderground v.1.15,2013-11-04 05:40:00,
2013-11-04 00:50:00,29.0,17.2,30.48,NE,51,0.0,1.0,61,0.00,,,0.00,Wunderground v.1.15,2013-11-04 05:50:00,
2013-11-04 00:55:00,29.1,17.7,30.49,NE,49,0.0,1.0,62,0.00,,,0.00,Wunderground v.1.15,2013-11-04 05:55:00,
2013-11-04 01:05:00,28.8,17.4,30.49,NE,49,0.0,1.0,62,0.00,,,0.00,Wunderground v.1.15,2013-11-04 06:05:00,
2013-11-04 01:15:00,28.4,17.4,30.50,NE,48,0.0,1.0,63,0.00,,,0.00,Wunderground v.1.15,2013-11-04 06:15:00,
2013-11-04 01:25:00,28.2,17.2,30.50,NW,325,0.0,1.0,63,0.00,,,0.00,Wunderground v.1.15,2013-11-04 06:25:00,
2013-11-04 01:30:00,28.1,17.5,30.50,NW,325,0.0,1.0,64,0.00,,,0.00,Wunderground v.1.15,2013-11-04 06:30:00,
2013-11-04 01:39:00,27.5,17.3,30.51,NW,325,0.0,1.0,65,0.00,,,0.00,Wunderground v.1.15,2013-11-04 06:39:00,
2013-11-04 01:45:00,27.3,17.4,30.51,NW,325,0.0,1.0,66,0.00,,,0.00,Wunderground v.1.15,2013-11-04 06:45:00,
2013-11-04 01:50:00,27.0,17.1,30.51,NW,324,0.0,1.0,66,0.00,,,0.00,Wunderground v.1.15,2013-11-04 06:50:00,
2013-11-04 01:55:00,26.9,17.4,30.51,NW,325,0.0,1.0,67,0.00,,,0.00,Wunderground v.1.15,2013-11-04 06:55:00,
2013-11-04 02:05:00,26.8,17.3,30.52,North,11,0.0,1.0,67,0.00,,,0.00,Wunderground v.1.15,2013-11-04 07:05:00,
2013-11-04 02:14:00,26.9,17.4,30.52,NW,307,0.0,1.0,67,0.00,,,0.00,Wunderground v.1.15,2013-11-04 07:14:00,
2013-11-04 02:20:00,27.0,17.5,30.52,NW,307,0.0,1.0,67,0.00,,,0.00,Wunderground v.1.15,2013-11-04 07:20:00,
2013-11-04 02:30:00,27.0,17.5,30.52,NW,305,0.0,1.0,67,0.00,,,0.00,Wunderground v.1.15,2013-11-04 07:30:00,
2013-11-04 02:40:00,26.8,17.3,30.53,NW,305,0.0,1.0,67,0.00,,,0.00,Wunderground v.1.15,2013-11-04 07:40:00,
2013-11-04 02:45:00,26.9,17.4,30.54,NW,320,0.0,1.0,67,0.00,,,0.00,Wunderground v.1.15,2013-11-04 07:45:00,
2013-11-04 02:55:00,26.7,17.6,30.54,WNW,291,0.0,1.0,68,0.00,,,0.00,Wunderground v.1.15,2013-11-04 07:55:00,
2013-11-04 03:00:00,26.5,17.0,30.54,NW,322,0.0,1.0,67,0.00,,,0.00,Wunderground v.1.15,2013-11-04 08:00:00,
2013-11-04 03:10:00,26.8,17.3,30.55,NNW,332,0.0,1.0,67,0.00,,,0.00,Wunderground v.1.15,2013-11-04 08:10:00,
2013-11-04 03:20:00,26.5,17.0,30.55,NNW,345,0.0,1.0,67,0.00,,,0.00,Wunderground v.1.15,2013-11-04 08:20:00,
2013-11-04 03:30:00,26.3,17.2,30.55,NNW,346,0.0,1.0,68,0.00,,,0.00,Wunderground v.1.15,2013-11-04 08:30:00,
2013-11-04 03:40:00,26.3,16.8,30.55,WNW,298,0.0,1.0,67,0.00,,,0.00,Wunderground v.1.15,2013-11-04 08:40:00,
2013-11-04 03:50:00,26.3,16.8,30.56,NE,39,0.0,1.0,67,0.00,,,0.00,Wunderground v.1.15,2013-11-04 08:50:00,
2013-11-04 04:00:00,26.3,17.2,30.55,NE,44,0.0,1.0,68,0.00,,,0.00,Wunderground v.1.15,2013-11-04 09:00:00,
2013-11-04 04:10:00,26.7,17.2,30.56,NE,37,0.0,1.0,67,0.00,,,0.00,Wunderground v.1.15,2013-11-04 09:10:00,
2013-11-04 04:20:00,26.7,16.9,30.56,North,8,0.0,1.0,66,0.00,,,0.00,Wunderground v.1.15,2013-11-04 09:20:00,
2013-11-04 04:30:00,26.8,17.0,30.57,NNE,19,0.0,1.0,66,0.00,,,0.00,Wunderground v.1.15,2013-11-04 09:30:00,
2013-11-04 04:40:00,26.8,17.0,30.57,North,354,0.0,1.0,66,0.00,,,0.00,Wunderground v.1.15,2013-11-04 09:40:00,
2013-11-04 04:50:00,26.5,17.0,30.58,NNW,339,0.0,1.0,67,0.00,,,0.00,Wunderground v.1.15,2013-11-04 09:50:00,
2013-11-04 05:00:00,26.3,16.8,30.59,NNW,340,0.0,1.0,67,0.00,,,0.00,Wunderground v.1.15,2013-11-04 10:00:00,
2013-11-04 05:10:00,26.1,17.0,30.59,North,1,0.0,1.0,68,0.00,,,0.00,Wunderground v.1.15,2013-11-04 10:10:00,
2013-11-04 05:15:00,26.3,16.8,30.59,NNW,327,0.0,1.0,67,0.00,,,0.00,Wunderground v.1.15,2013-11-04 10:15:00,
2013-11-04 05:25:00,26.0,16.9,30.59,NW,316,0.0,1.0,68,0.00,,,0.00,Wunderground v.1.15,2013-11-04 10:25:00,
2013-11-04 05:35:00,25.6,16.5,30.60,NNW,336,0.0,1.0,68,0.00,,,0.00,Wunderground v.1.15,2013-11-04 10:35:00,
2013-11-04 05:45:00,25.6,16.8,30.61,NW,318,0.0,1.0,69,0.00,,,0.00,Wunderground v.1.15,2013-11-04 10:45:00,
2013-11-04 05:55:00,25.4,16.6,30.61,West,277,0.0,1.0,69,0.00,,,0.00,Wunderground v.1.15,2013-11-04 10:55:00,
2013-11-04 06:05:00,25.7,16.6,30.61,NNW,332,0.0,1.0,68,0.00,,,0.00,Wunderground v.1.15,2013-11-04 11:05:00,
2013-11-04 06:15:00,25.9,16.8,30.62,NNE,25,0.0,1.0,68,0.00,,,0.00,Wunderground v.1.15,2013-11-04 11:15:00,
2013-11-04 06:25:00,25.8,17.0,30.62,NW,307,0.0,1.0,69,0.00,,,0.00,Wunderground v.1.15,2013-11-04 11:25:00,
2013-11-04 06:35:00,25.5,16.7,30.63,NNE,29,0.0,1.0,69,0.00,,,0.00,Wunderground v.1.15,2013-11-04 11:35:00,
2013-11-04 06:40:00,25.6,16.8,30.63,ENE,68,0.0,1.0,69,0.00,,,0.00,Wunderground v.1.15,2013-11-04 11:40:00,
2013-11-04 06:50:00,25.4,16.6,30.63,ENE,68,0.0,1.0,69,0.00,,,0.00,Wunderground v.1.15,2013-11-04 11:50:00,
2013-11-04 06:55:00,25.2,16.5,30.63,ENE,68,0.0,1.0,69,0.00,,,0.00,Wunderground v.1.15,2013-11-04 11:55:00,
2013-11-04 07:05:00,25.7,17.3,30.64,North,6,0.0,1.0,70,0.00,,,0.00,Wunderground v.1.15,2013-11-04 12:05:00,
2013-11-04 07:10:00,25.7,17.3,30.64,North,6,0.0,1.0,70,0.00,,,0.00,Wunderground v.1.15,2013-11-04 12:10:00,
2013-11-04 07:20:00,26.2,17.4,30.65,NNW,335,0.0,1.0,69,0.00,,,0.00,Wunderground v.1.15,2013-11-04 12:20:00,
2013-11-04 07:25:00,26.7,17.2,30.65,NNE,20,0.0,1.0,67,0.00,,,0.00,Wunderground v.1.15,2013-11-04 12:25:00,
2013-11-04 07:29:00,27.2,17.3,30.65,North,8,0.0,1.0,66,0.00,,,0.00,Wunderground v.1.15,2013-11-04 12:29:00,
2013-11-04 07:35:00,27.8,17.2,30.65,NE,49,1.0,1.0,64,0.00,,,0.00,Wunderground v.1.15,2013-11-04 12:35:00,
2013-11-04 07:45:00,28.7,17.3,30.66,East,81,1.0,1.0,62,0.00,,,0.00,Wunderground v.1.15,2013-11-04 12:45:00,
2013-11-04 07:55:00,29.2,17.0,30.66,NE,40,1.0,1.0,60,0.00,,,0.00,Wunderground v.1.15,2013-11-04 12:55:00,
2013-11-04 08:00:00,29.6,17.4,30.66,NNE,21,1.0,1.0,60,0.00,,,0.00,Wunderground v.1.15,2013-11-04 13:00:00,
2013-11-04 08:05:00,29.8,17.2,30.66,NNW,338,2.0,2.0,59,0.00,,,0.00,Wunderground v.1.15,2013-11-04 13:05:00,
2013-11-04 08:15:00,30.4,17.4,30.66,ENE,75,0.0,1.0,58,0.00,,,0.00,Wunderground v.1.15,2013-11-04 13:15:00,
2013-11-04 08:25:00,31.3,18.2,30.66,NW,311,0.0,1.0,58,0.00,,,0.00,Wunderground v.1.15,2013-11-04 13:25:00,
2013-11-04 08:30:00,31.6,17.7,30.66,NNW,328,0.0,1.0,56,0.00,,,0.00,Wunderground v.1.15,2013-11-04 13:30:00,
2013-11-04 08:35:00,32.1,17.3,30.66,NNW,348,1.0,1.0,54,0.00,,,0.00,Wunderground v.1.15,2013-11-04 13:35:00,
2013-11-04 08:45:00,32.8,17.5,30.66,ESE,104,2.0,2.0,53,0.00,,,0.00,Wunderground v.1.15,2013-11-04 13:45:00,
2013-11-04 08:50:00,33.1,17.4,30.66,NE,56,2.0,2.0,52,0.00,,,0.00,Wunderground v.1.15,2013-11-04 13:50:00,
2013-11-04 08:55:00,33.4,17.6,30.66,NE,36,1.0,8.0,52,0.00,,,0.00,Wunderground v.1.15,2013-11-04 13:55:00,
2013-11-04 09:00:00,33.4,17.2,30.66,NE,51,2.0,2.0,51,0.00,,,0.00,Wunderground v.1.15,2013-11-04 14:00:00,
2013-11-04 09:10:00,34.0,17.7,30.66,ESE,115,1.0,1.0,51,0.00,,,0.00,Wunderground v.1.15,2013-11-04 14:10:00,
2013-11-04 09:15:00,34.3,17.6,30.66,ENE,65,1.0,3.0,50,0.00,,,0.00,Wunderground v.1.15,2013-11-04 14:15:00,
2013-11-04 09:25:00,34.6,17.4,30.67,NE,38,1.0,2.0,49,0.00,,,0.00,Wunderground v.1.15,2013-11-04 14:25:00,
2013-11-04 09:35:00,35.4,17.6,30.67,NE,44,1.0,2.0,48,0.00,,,0.00,Wunderground v.1.15,2013-11-04 14:35:00,
2013-11-04 09:40:00,35.4,17.1,30.67,ENE,58,2.0,2.0,47,0.00,,,0.00,Wunderground v.1.15,2013-11-04 14:40:00,
2013-11-04 09:45:00,35.7,16.9,30.67,ESE,113,2.0,2.0,46,0.00,,,0.00,Wunderground v.1.15,2013-11-04 14:45:00,
2013-11-04 09:50:00,35.9,17.1,30.66,WNW,284,1.0,1.0,46,0.00,,,0.00,Wunderground v.1.15,2013-11-04 14:50:00,
2013-11-04 09:55:00,36.1,16.8,30.67,NE,44,2.0,2.0,45,0.00,,,0.00,Wunderground v.1.15,2013-11-04 14:55:00,
2013-11-04 10:05:00,36.3,17.0,30.67,East,98,2.0,2.0,45,0.00,,,0.00,Wunderground v.1.15,2013-11-04 15:05:00,
2013-11-04 10:10:00,36.9,18.0,30.67,SSE,156,1.0,1.0,46,0.00,,,0.00,Wunderground v.1.15,2013-11-04 15:10:00,
2013-11-04 10:15:00,37.2,17.3,30.67,ENE,63,1.0,1.0,44,0.00,,,0.00,Wunderground v.1.15,2013-11-04 15:15:00,
2013-11-04 10:20:00,37.6,18.2,30.67,ENE,74,0.0,1.0,45,0.00,,,0.00,Wunderground v.1.15,2013-11-04 15:20:00,
2013-11-04 10:25:00,37.8,17.3,30.67,ENE,68,1.0,1.0,43,0.00,,,0.00,Wunderground v.1.15,2013-11-04 15:25:00,
2013-11-04 10:30:00,37.7,16.6,30.67,ENE,73,1.0,1.0,42,0.00,,,0.00,Wunderground v.1.15,2013-11-04 15:30:00,
2013-11-04 10:40:00,37.9,16.8,30.67,NNE,32,2.0,2.0,42,0.00,,,0.00,Wunderground v.1.15,2013-11-04 15:40:00,
2013-11-04 10:45:00,37.9,16.8,30.67,North,355,1.0,2.0,42,0.00,,,0.00,Wunderground v.1.15,2013-11-04 15:45:00,
2013-11-04 10:55:00,38.1,16.4,30.67,NNE,23,1.0,1.0,41,0.00,,,0.00,Wunderground v.1.15,2013-11-04 15:55:00,
2013-11-04 11:00:00,38.6,16.9,30.68,SSE,162,1.0,2.0,41,0.00,,,0.00,Wunderground v.1.15,2013-11-04 16:00:00,
2013-11-04 11:05:00,39.3,16.4,30.68,WNW,284,1.0,2.0,39,0.00,,,0.00,Wunderground v.1.15,2013-11-04 16:05:00,
2013-11-04 11:15:00,38.9,16.0,30.68,ENE,58,2.0,2.0,39,0.00,,,0.00,Wunderground v.1.15,2013-11-04 16:15:00,
2013-11-04 11:20:00,39.1,15.6,30.68,NE,51,1.0,2.0,38,0.00,,,0.00,Wunderground v.1.15,2013-11-04 16:20:00,
2013-11-04 11:25:00,39.0,16.1,30.68,North,355,1.0,3.0,39,0.00,,,0.00,Wunderground v.1.15,2013-11-04 16:25:00,
2013-11-04 11:35:00,38.8,16.5,30.68,NNE,26,1.0,2.0,40,0.00,,,0.00,Wunderground v.1.15,2013-11-04 16:35:00,
2013-11-04 11:40:00,39.1,16.8,30.68,NW,319,2.0,2.0,40,0.00,,,0.00,Wunderground v.1.15,2013-11-04 16:40:00,
2013-11-04 11:45:00,39.4,16.5,30.67,NNE,15,1.0,2.0,39,0.00,,,0.00,Wunderground v.1.15,2013-11-04 16:45:00,
2013-11-04 11:55:00,39.9,16.9,30.67,NE,56,2.0,5.0,39,0.00,,,0.00,Wunderground v.1.15,2013-11-04 16:55:00,
2013-11-04 12:00:00,39.7,16.1,30.67,ESE,102,1.0,1.0,38,0.00,,,0.00,Wunderground v.1.15,2013-11-04 17:00:00,
2013-11-04 12:05:00,39.8,16.2,30.67,West,263,1.0,1.0,38,0.00,,,0.00,Wunderground v.1.15,2013-11-04 17:05:00,
2013-11-04 12:10:00,39.4,16.5,30.66,SW,235,1.0,2.0,39,0.00,,,0.00,Wunderground v.1.15,2013-11-04 17:10:00,
2013-11-04 12:19:00,40.4,16.8,30.66,North,355,1.0,2.0,38,0.00,,,0.00,Wunderground v.1.15,2013-11-04 17:19:00,
2013-11-04 12:25:00,40.3,17.3,30.66,ENE,74,1.0,2.0,39,0.00,,,0.00,Wunderground v.1.15,2013-11-04 17:25:00,
2013-11-04 12:30:00,40.5,16.2,30.66,ENE,75,2.0,2.0,37,0.00,,,0.00,Wunderground v.1.15,2013-11-04 17:30:00,
2013-11-04 12:35:00,40.3,15.4,30.66,North,352,2.0,3.0,36,0.00,,,0.00,Wunderground v.1.15,2013-11-04 17:35:00,
2013-11-04 12:40:00,40.2,14.7,30.65,NE,49,1.0,1.0,35,0.00,,,0.00,Wunderground v.1.15,2013-11-04 17:40:00,
2013-11-04 12:45:00,40.4,15.5,30.65,NE,51,1.0,1.0,36,0.00,,,0.00,Wunderground v.1.15,2013-11-04 17:45:00,
2013-11-04 12:54:00,40.6,15.7,30.65,ENE,73,1.0,3.0,36,0.00,,,0.00,Wunderground v.1.15,2013-11-04 17:54:00,
2013-11-04 12:59:00,40.6,16.3,30.65,West,266,1.0,1.0,37,0.00,,,0.00,Wunderground v.1.15,2013-11-04 17:59:00,
2013-11-04 13:05:00,40.8,15.2,30.65,WNW,284,1.0,1.0,35,0.00,,,0.00,Wunderground v.1.15,2013-11-04 18:05:00,
2013-11-04 13:14:00,40.8,15.2,30.65,SSE,153,1.0,2.0,35,0.00,,,0.00,Wunderground v.1.15,2013-11-04 18:14:00,
2013-11-04 13:20:00,41.0,16.0,30.65,SE,145,0.0,1.0,36,0.00,,,0.00,Wunderground v.1.15,2013-11-04 18:20:00,
2013-11-04 13:25:00,41.2,16.2,30.65,NW,309,0.0,2.0,36,0.00,,,0.00,Wunderground v.1.15,2013-11-04 18:25:00,
2013-11-04 13:30:00,41.1,15.5,30.65,NE,50,1.0,1.0,35,0.00,,,0.00,Wunderground v.1.15,2013-11-04 18:30:00,
2013-11-04 13:40:00,41.0,16.0,30.64,North,8,0.0,1.0,36,0.00,,,0.00,Wunderground v.1.15,2013-11-04 18:40:00,
2013-11-04 13:45:00,41.2,16.9,30.64,NNW,328,0.0,1.0,37,0.00,,,0.00,Wunderground v.1.15,2013-11-04 18:45:00,
2013-11-04 13:50:00,41.5,15.8,30.65,NE,37,0.0,1.0,35,0.00,,,0.00,Wunderground v.1.15,2013-11-04 18:50:00,
2013-11-04 13:55:00,41.2,15.6,30.65,SSW,206,1.0,1.0,35,0.00,,,0.00,Wunderground v.1.15,2013-11-04 18:55:00,
2013-11-04 14:00:00,41.0,15.4,30.65,NW,311,1.0,1.0,35,0.00,,,0.00,Wunderground v.1.15,2013-11-04 19:00:00,
2013-11-04 14:05:00,40.8,14.6,30.65,WNW,284,1.0,1.0,34,0.00,,,0.00,Wunderground v.1.15,2013-11-04 19:05:00,
2013-11-04 14:10:00,40.5,15.0,30.65,NE,45,0.0,2.0,35,0.00,,,0.00,Wunderground v.1.15,2013-11-04 19:10:00,
2013-11-04 14:20:00,40.8,15.2,30.65,ENE,58,1.0,2.0,35,0.00,,,0.00,Wunderground v.1.15,2013-11-04 19:20:00,
2013-11-04 14:30:00,41.4,15.1,30.66,WNW,295,1.0,2.0,34,0.00,,,0.00,Wunderground v.1.15,2013-11-04 19:30:00,
2013-11-04 14:40:00,41.3,15.0,30.66,North,353,1.0,1.0,34,0.00,,,0.00,Wunderground v.1.15,2013-11-04 19:40:00,
2013-11-04 14:45:00,41.5,15.2,30.66,NE,39,1.0,1.0,34,0.00,,,0.00,Wunderground v.1.15,2013-11-04 19:45:00,
2013-11-04 14:50:00,41.7,16.0,30.66,ESE,120,1.0,1.0,35,0.00,,,0.00,Wunderground v.1.15,2013-11-04 19:50:00,
2013-11-04 15:00:00,41.6,15.3,30.66,NE,38,0.0,1.0,34,0.00,,,0.00,Wunderground v.1.15,2013-11-04 20:00:00,
2013-11-04 15:10:00,41.5,15.8,30.66,NNW,333,1.0,1.0,35,0.00,,,0.00,Wunderground v.1.15,2013-11-04 20:10:00,
2013-11-04 15:15:00,41.3,15.0,30.66,West,278,1.0,1.0,34,0.00,,,0.00,Wunderground v.1.15,2013-11-04 20:15:00,
2013-11-04 15:20:00,41.3,15.7,30.66,West,281,1.0,2.0,35,0.00,,,0.00,Wunderground v.1.15,2013-11-04 20:20:00,
2013-11-04 15:25:00,41.3,15.7,30.66,WNW,296,1.0,2.0,35,0.00,,,0.00,Wunderground v.1.15,2013-11-04 20:25:00,
2013-11-04 15:35:00,41.2,16.2,30.67,NE,48,0.0,1.0,36,0.00,,,0.00,Wunderground v.1.15,2013-11-04 20:35:00,
2013-11-04 15:40:00,40.9,16.6,30.67,North,356,0.0,1.0,37,0.00,,,0.00,Wunderground v.1.15,2013-11-04 20:40:00,
2013-11-04 15:45:00,40.6,16.3,30.67,North,356,0.0,1.0,37,0.00,,,0.00,Wunderground v.1.15,2013-11-04 20:45:00,
2013-11-04 15:50:00,40.2,16.0,30.67,North,356,0.0,1.0,37,0.00,,,0.00,Wunderground v.1.15,2013-11-04 20:50:00,
2013-11-04 15:55:00,39.8,16.8,30.67,North,356,0.0,1.0,39,0.00,,,0.00,Wunderground v.1.15,2013-11-04 20:55:00,
2013-11-04 16:00:00,39.6,17.2,30.67,North,356,0.0,1.0,40,0.00,,,0.00,Wunderground v.1.15,2013-11-04 21:00:00,
2013-11-04 16:10:00,39.4,18.2,30.68,North,356,0.0,1.0,42,0.00,,,0.00,Wunderground v.1.15,2013-11-04 21:10:00,
2013-11-04 16:20:00,38.3,18.3,30.68,North,356,0.0,1.0,44,0.00,,,0.00,Wunderground v.1.15,2013-11-04 21:20:00,
2013-11-04 16:25:00,37.6,18.2,30.68,North,356,0.0,1.0,45,0.00,,,0.00,Wunderground v.1.15,2013-11-04 21:25:00,
2013-11-04 16:30:00,36.9,18.0,30.69,North,356,0.0,1.0,46,0.00,,,0.00,Wunderground v.1.15,2013-11-04 21:30:00,
2013-11-04 16:40:00,35.9,17.1,30.68,North,357,0.0,1.0,46,0.00,,,0.00,Wunderground v.1.15,2013-11-04 21:40:00,
2013-11-04 16:50:00,34.7,17.9,30.68,North,356,0.0,1.0,50,0.00,,,0.00,Wunderground v.1.15,2013-11-04 21:50:00,
2013-11-04 16:55:00,34.2,17.9,30.68,North,357,0.0,1.0,51,0.00,,,0.00,Wunderground v.1.15,2013-11-04 21:55:00,
2013-11-04 17:05:00,33.4,18.9,30.68,North,357,0.0,1.0,55,0.00,,,0.00,Wunderground v.1.15,2013-11-04 22:05:00,
2013-11-04 17:10:00,33.0,18.1,30.69,North,357,0.0,1.0,54,0.00,,,0.00,Wunderground v.1.15,2013-11-04 22:10:00,
2013-11-04 17:20:00,32.2,18.7,30.69,North,357,0.0,1.0,57,0.00,,,0.00,Wunderground v.1.15,2013-11-04 22:20:00,
2013-11-04 17:25:00,31.7,17.8,30.69,North,356,0.0,1.0,56,0.00,,,0.00,Wunderground v.1.15,2013-11-04 22:25:00,
2013-11-04 17:35:00,30.9,19.0,30.69,North,356,0.0,1.0,61,0.00,,,0.00,Wunderground v.1.15,2013-11-04 22:35:00,
2013-11-04 17:45:00,30.2,18.7,30.70,North,357,0.0,1.0,62,0.00,,,0.00,Wunderground v.1.15,2013-11-04 22:45:00,
2013-11-04 17:50:00,30.0,18.5,30.70,North,356,0.0,1.0,62,0.00,,,0.00,Wunderground v.1.15,2013-11-04 22:50:00,
2013-11-04 18:00:00,29.7,17.9,30.70,North,356,0.0,1.0,61,0.00,,,0.00,Wunderground v.1.15,2013-11-04 23:00:00,
2013-11-04 18:10:00,29.2,18.2,30.70,SSE,155,0.0,1.0,63,0.00,,,0.00,Wunderground v.1.15,2013-11-04 23:10:00,
2013-11-04 18:20:00,28.6,18.3,30.71,SSE,155,0.0,1.0,65,0.00,,,0.00,Wunderground v.1.15,2013-11-04 23:20:00,
2013-11-04 18:29:00,28.3,18.4,30.71,SSE,155,0.0,1.0,66,0.00,,,0.00,Wunderground v.1.15,2013-11-04 23:29:00,
2013-11-04 18:35:00,28.1,18.5,30.71,SSE,155,0.0,1.0,67,0.00,,,0.00,Wunderground v.1.15,2013-11-04 23:35:00,
2013-11-04 18:40:00,27.7,18.2,30.71,SSE,155,0.0,1.0,67,0.00,,,0.00,Wunderground v.1.15,2013-11-04 23:40:00,
2013-11-04 18:45:00,27.4,18.2,30.71,SSE,155,0.0,1.0,68,0.00,,,0.00,Wunderground v.1.15,2013-11-04 23:45:00,
2013-11-04 18:55:00,27.3,17.8,30.71,SSE,155,0.0,1.0,67,0.00,,,0.00,Wunderground v.1.15,2013-11-04 23:55:00,
2013-11-04 19:05:00,27.8,18.3,30.72,SSE,155,0.0,1.0,67,0.00,,,0.00,Wunderground v.1.15,2013-11-05 00:05:00,
2013-11-04 19:10:00,28.1,19.2,30.71,SSE,155,0.0,1.0,69,0.00,,,0.00,Wunderground v.1.15,2013-11-05 00:10:00,
2013-11-04 19:20:00,27.6,18.4,30.71,SSE,155,0.0,1.0,68,0.00,,,0.00,Wunderground v.1.15,2013-11-05 00:20:00,
2013-11-04 19:30:00,27.3,19.1,30.71,SW,214,0.0,1.0,71,0.00,,,0.00,Wunderground v.1.15,2013-11-05 00:30:00,
2013-11-04 19:35:00,27.0,18.8,30.71,SW,214,0.0,1.0,71,0.00,,,0.00,Wunderground v.1.15,2013-11-05 00:35:00,
2013-11-04 19:45:00,26.9,19.7,30.71,SW,214,0.0,1.0,74,0.00,,,0.00,Wunderground v.1.15,2013-11-05 00:45:00,
2013-11-04 19:50:00,26.8,19.6,30.71,SW,214,0.0,1.0,74,0.00,,,0.00,Wunderground v.1.15,2013-11-05 00:50:00,
2013-11-04 20:00:00,26.5,19.6,30.72,SW,214,0.0,1.0,75,0.00,,,0.00,Wunderground v.1.15,2013-11-05 01:00:00,
2013-11-04 20:10:00,25.9,19.7,30.72,SW,214,0.0,1.0,77,0.00,,,0.00,Wunderground v.1.15,2013-11-05 01:10:00,
2013-11-04 20:19:00,25.8,19.9,30.72,SW,214,0.0,1.0,78,0.00,,,0.00,Wunderground v.1.15,2013-11-05 01:19:00,
2013-11-04 20:25:00,25.7,19.8,30.72,SW,214,0.0,1.0,78,0.00,,,0.00,Wunderground v.1.15,2013-11-05 01:25:00,
2013-11-04 20:35:00,25.5,19.9,30.73,SW,214,0.0,1.0,79,0.00,,,0.00,Wunderground v.1.15,2013-11-05 01:35:00,
2013-11-04 20:45:00,25.4,20.1,30.73,SW,214,0.0,1.0,80,0.00,,,0.00,Wunderground v.1.15,2013-11-05 01:45:00,
2013-11-04 20:50:00,25.3,20.0,30.73,SW,214,0.0,1.0,80,0.00,,,0.00,Wunderground v.1.15,2013-11-05 01:50:00,
2013-11-04 21:00:00,24.8,19.5,30.73,SW,214,0.0,1.0,80,0.00,,,0.00,Wunderground v.1.15,2013-11-05 02:00:00,
2013-11-04 21:05:00,24.7,19.4,30.73,SW,214,0.0,1.0,80,0.00,,,0.00,Wunderground v.1.15,2013-11-05 02:05:00,
2013-11-04 21:10:00,24.8,19.5,30.73,SW,214,0.0,1.0,80,0.00,,,0.00,Wunderground v.1.15,2013-11-05 02:10:00,
2013-11-04 21:20:00,24.7,19.4,30.73,SW,214,0.0,1.0,80,0.00,,,0.00,Wunderground v.1.15,2013-11-05 02:20:00,
2013-11-04 21:25:00,24.6,19.3,30.73,SW,214,0.0,1.0,80,0.00,,,0.00,Wunderground v.1.15,2013-11-05 02:25:00,
2013-11-04 21:30:00,24.4,19.4,30.73,SW,214,0.0,1.0,81,0.00,,,0.00,Wunderground v.1.15,2013-11-05 02:30:00,
2013-11-04 21:40:00,24.2,19.2,30.72,SW,214,0.0,1.0,81,0.00,,,0.00,Wunderground v.1.15,2013-11-05 02:40:00,
2013-11-04 21:45:00,24.2,19.2,30.72,SW,214,0.0,1.0,81,0.00,,,0.00,Wunderground v.1.15,2013-11-05 02:45:00,
2013-11-04 21:55:00,24.4,19.4,30.72,SW,214,0.0,1.0,81,0.00,,,0.00,Wunderground v.1.15,2013-11-05 02:55:00,
2013-11-04 22:05:00,24.2,19.8,30.73,SW,214,0.0,1.0,83,0.00,,,0.00,Wunderground v.1.15,2013-11-05 03:05:00,
2013-11-04 22:10:00,24.2,20.1,30.73,SW,214,0.0,1.0,84,0.00,,,0.00,Wunderground v.1.15,2013-11-05 03:10:00,
2013-11-04 22:19:00,23.8,19.7,30.73,SW,214,0.0,1.0,84,0.00,,,0.00,Wunderground v.1.15,2013-11-05 03:19:00,
2013-11-04 22:25:00,23.7,19.9,30.73,SW,214,0.0,1.0,85,0.00,,,0.00,Wunderground v.1.15,2013-11-05 03:25:00,
2013-11-04 22:35:00,23.5,19.4,30.73,SW,214,0.0,1.0,84,0.00,,,0.00,Wunderground v.1.15,2013-11-05 03:35:00,
2013-11-04 22:40:00,23.5,19.4,30.73,SW,214,0.0,1.0,84,0.00,,,0.00,Wunderground v.1.15,2013-11-05 03:40:00,
2013-11-04 22:45:00,23.4,19.3,30.73,SW,214,0.0,1.0,84,0.00,,,0.00,Wunderground v.1.15,2013-11-05 03:45:00,
2013-11-04 22:55:00,23.5,19.4,30.73,SW,214,0.0,1.0,84,0.00,,,0.00,Wunderground v.1.15,2013-11-05 03:55:00,
2013-11-04 23:05:00,23.4,19.3,30.73,SW,214,0.0,1.0,84,0.00,,,0.00,Wunderground v.1.15,2013-11-05 04:05:00,
2013-11-04 23:10:00,23.2,19.1,30.73,SW,214,0.0,1.0,84,0.00,,,0.00,Wunderground v.1.15,2013-11-05 04:10:00,
2013-11-04 23:15:00,22.9,19.1,30.74,SW,214,0.0,1.0,85,0.00,,,0.00,Wunderground v.1.15,2013-11-05 04:15:00,
2013-11-04 23:25:00,22.8,19.0,30.74,SW,214,0.0,1.0,85,0.00,,,0.00,Wunderground v.1.15,2013-11-05 04:25:00,
2013-11-04 23:30:00,22.9,19.3,30.74,SW,214,0.0,1.0,86,0.00,,,0.00,Wunderground v.1.15,2013-11-05 04:30:00,
2013-11-04 23:40:00,22.9,19.3,30.74,SW,214,0.0,1.0,86,0.00,,,0.00,Wunderground v.1.15,2013-11-05 04:40:00,
2013-11-04 23:50:00,22.7,18.9,30.74,SW,214,0.0,1.0,85,0.00,,,0.00,Wunderground v.1.15,2013-11-05 04:50:00,
2013-11-04 23:55:00,22.4,18.6,30.74,SW,214,0.0,1.0,85,0.00,,,0.00,Wunderground v.1.15,2013-11-05 04:55:00,